Location: York
(31.8935°S, 116.7682°E)
Time: 12:01:48
(UTC+08:00)

deb Explorer IX - Pass Details

Date: 28 September 2022
Orbit: 533 x 1057 km, 38.8° (Epoch: 01 December)

Event Time Altitude Azimuth Distance (km) Brightness Sun altitude
Rises 18:03:04 0° 333° (NNW) 3,574 ? 1.2°
Reaches altitude 10° 18:06:21 10° 347° (NNW) 2,542 ? 0.5°
Maximum altitude 18:10:55 23° 36° (NE) 1,691 ? -0.4°
Drops below altitude 10° 18:15:02 10° 86° (E) 2,269 ? -1.3°
Enters shadow 18:17:22 - 99° (E) 2,971 ? -1.8°
Sets 18:17:46 0° 101° (E) 3,099 - -1.9°
